N20320 KBDL-

Flight info

Callsign N20320
Flight time N/A
Altitude VFR
Route
Aircraft C172/L-VGD/C

Departure

Time 2026-04-30 01:08
Airport Bradley International Airport (KBDL)

Arrival

Time N/A
Airport -
Time Latitude Longitude Altitude Speed Heading
2026-04-30 01:01 41.93842 -72.69355 174 ft 2 kts 266°
2026-04-30 01:01 41.93794 -72.69361 174 ft 12 kts 181°
2026-04-30 01:02 41.93725 -72.69321 176 ft 9 kts 124°
2026-04-30 01:02 41.93745 -72.69240 176 ft 11 kts 45°
2026-04-30 01:02 41.93809 -72.69157 177 ft 14 kts 43°
2026-04-30 01:02 41.93861 -72.69076 176 ft 11 kts 78°
2026-04-30 01:03 41.93815 -72.68985 176 ft 13 kts 134°
2026-04-30 01:03 41.93759 -72.68879 175 ft 14 kts 125°
2026-04-30 01:03 41.93699 -72.68793 176 ft 11 kts 127°
2026-04-30 01:03 41.93696 -72.68733 175 ft 4 kts 65°
2026-04-30 01:04 41.93723 -72.68691 174 ft 9 kts 41°
2026-04-30 01:04 41.93790 -72.68608 174 ft 17 kts 44°
2026-04-30 01:04 41.93891 -72.68487 172 ft 22 kts 43°
2026-04-30 01:04 41.94001 -72.68352 175 ft 20 kts 40°
2026-04-30 01:05 41.94105 -72.68224 175 ft 20 kts 46°
2026-04-30 01:05 41.94198 -72.68114 178 ft 17 kts 43°
2026-04-30 01:05 41.94294 -72.67997 176 ft 20 kts 44°
2026-04-30 01:05 41.94396 -72.67861 175 ft 22 kts 45°
2026-04-30 01:06 41.94512 -72.67710 172 ft 24 kts 45°
2026-04-30 01:06 41.94633 -72.67553 171 ft 23 kts 45°
2026-04-30 01:06 41.94734 -72.67420 171 ft 19 kts 44°
2026-04-30 01:06 41.94821 -72.67307 171 ft 17 kts 45°
2026-04-30 01:07 41.94901 -72.67201 171 ft 15 kts 45°
2026-04-30 01:07 41.94984 -72.67140 171 ft 14 kts 344°
2026-04-30 01:07 41.95037 -72.67233 170 ft 13 kts 257°
2026-04-30 01:07 41.94925 -72.67405 170 ft 48 kts 225°
2026-04-30 01:08 41.94604 -72.67849 251 ft 76 kts 222°
2026-04-30 01:08 41.94217 -72.68363 464 ft 80 kts 222°
2026-04-30 01:08 41.93816 -72.68772 773 ft 69 kts 192°
2026-04-30 01:08 41.93367 -72.68563 971 ft 77 kts 134°
2026-04-30 01:09 41.93308 -72.67818 1100 ft 97 kts 70°
2026-04-30 01:09 41.93821 -72.67145 1135 ft 110 kts 38°
2026-04-30 01:09 41.94462 -72.66530 1152 ft 114 kts 42°
2026-04-30 01:09 41.95081 -72.65868 1185 ft 110 kts 44°
2026-04-30 01:10 41.95610 -72.65315 1097 ft 88 kts 32°
2026-04-30 01:10 41.96149 -72.65441 865 ft 82 kts 313°
2026-04-30 01:10 41.96184 -72.66044 694 ft 65 kts 220°
2026-04-30 01:10 41.95771 -72.66390 469 ft 72 kts 214°
2026-04-30 01:11 41.95399 -72.66796 332 ft 67 kts 217°
2026-04-30 01:11 41.95067 -72.67216 204 ft 65 kts 220°
2026-04-30 01:11 41.94783 -72.67583 169 ft 56 kts 225°
2026-04-30 01:11 41.94470 -72.68054 288 ft 75 kts 226°
2026-04-30 01:12 41.94114 -72.68581 504 ft 78 kts 224°
2026-04-30 01:12 41.93670 -72.68890 755 ft 73 kts 176°
2026-04-30 01:12 41.93300 -72.68452 984 ft 78 kts 110°
2026-04-30 01:12 41.93442 -72.67706 1117 ft 98 kts 59°
2026-04-30 01:13 41.93960 -72.67007 1188 ft 106 kts 51°
2026-04-30 01:13 41.94490 -72.66298 1234 ft 106 kts 51°
2026-04-30 01:13 41.95013 -72.65629 1191 ft 102 kts 49°
2026-04-30 01:13 41.95523 -72.64979 1165 ft 100 kts 51°
2026-04-30 01:14 41.96001 -72.64332 1165 ft 96 kts 53°
2026-04-30 01:14 41.96451 -72.63680 1185 ft 95 kts 53°
2026-04-30 01:14 41.96965 -72.63221 1137 ft 85 kts
2026-04-30 01:14 41.97402 -72.63599 1054 ft 75 kts 284°
2026-04-30 01:15 41.97258 -72.64227 946 ft 73 kts 236°
2026-04-30 01:15 41.96957 -72.64746 763 ft 69 kts 221°
2026-04-30 01:15 41.96616 -72.65174 636 ft 67 kts 221°
2026-04-30 01:15 41.96296 -72.65612 534 ft 64 kts 220°
2026-04-30 01:16 41.95964 -72.66044 449 ft 70 kts 221°
2026-04-30 01:16 41.95601 -72.66517 378 ft 74 kts 222°
2026-04-30 01:16 41.95241 -72.66989 263 ft 71 kts 221°
2026-04-30 01:16 41.94920 -72.67414 170 ft 55 kts 221°
2026-04-30 01:17 41.94634 -72.67793 205 ft 70 kts 226°
2026-04-30 01:17 41.94281 -72.68306 372 ft 78 kts 226°
2026-04-30 01:17 41.93909 -72.68834 611 ft 76 kts 225°
2026-04-30 01:17 41.93444 -72.69018 841 ft 76 kts 172°
2026-04-30 01:18 41.92935 -72.68708 1006 ft 85 kts 149°
2026-04-30 01:18 41.92493 -72.68151 1161 ft 90 kts 138°
2026-04-30 01:18 41.92356 -72.67331 1275 ft 98 kts 82°
2026-04-30 01:18 41.92788 -72.66623 1268 ft 100 kts 46°
2026-04-30 01:19 41.93333 -72.66057 1253 ft 98 kts 43°
2026-04-30 01:19 41.93882 -72.65532 1235 ft 96 kts 41°
2026-04-30 01:19 41.94246 -72.65200 1232 ft 94 kts 43°
2026-04-30 01:19 41.94781 -72.64693 1185 ft 94 kts 42°
2026-04-30 01:20 41.95324 -72.64149 1184 ft 98 kts 44°
2026-04-30 01:20 41.95906 -72.63701 1224 ft 96 kts 12°
2026-04-30 01:20 41.96488 -72.63961 1215 ft 84 kts 315°
2026-04-30 01:20 41.96758 -72.64588 1095 ft 78 kts 264°
2026-04-30 01:21 41.96499 -72.65246 892 ft 80 kts 231°
2026-04-30 01:21 41.96151 -72.65782 662 ft 73 kts 225°
2026-04-30 01:21 41.95807 -72.66247 459 ft 68 kts 223°
2026-04-30 01:21 41.95468 -72.66692 358 ft 68 kts 223°
2026-04-30 01:22 41.95140 -72.67122 217 ft 62 kts 223°
2026-04-30 01:22 41.94871 -72.67473 171 ft 46 kts 225°
2026-04-30 01:22 41.94568 -72.67886 257 ft 71 kts 224°
2026-04-30 01:22 41.94218 -72.68359 467 ft 74 kts 223°
2026-04-30 01:23 41.93829 -72.68814 701 ft 72 kts 202°
2026-04-30 01:23 41.93341 -72.68671 893 ft 82 kts 144°
2026-04-30 01:23 41.92966 -72.68041 1059 ft 89 kts 130°
2026-04-30 01:23 41.92673 -72.67323 1272 ft 87 kts 98°
2026-04-30 01:24 41.93010 -72.66639 1229 ft 96 kts 42°
2026-04-30 01:24 41.93536 -72.66094 1198 ft 94 kts 45°
2026-04-30 01:24 41.94045 -72.65542 1140 ft 94 kts 44°
2026-04-30 01:24 41.94565 -72.64998 1131 ft 94 kts 43°
2026-04-30 01:25 41.95051 -72.64524 1047 ft 82 kts 27°
2026-04-30 01:25 41.95597 -72.64593 935 ft 82 kts 327°
2026-04-30 01:25 41.95884 -72.65197 816 ft 78 kts 270°
2026-04-30 01:25 41.95805 -72.65895 617 ft 75 kts 249°
2026-04-30 01:26 41.95586 -72.66488 422 ft 68 kts 232°
2026-04-30 01:26 41.95270 -72.66951 272 ft 66 kts 223°
2026-04-30 01:26 41.94970 -72.67348 170 ft 52 kts 222°
2026-04-30 01:26 41.94706 -72.67691 177 ft 67 kts 224°
2026-04-30 01:27 41.94361 -72.68147 373 ft 72 kts 217°
2026-04-30 01:27 41.93979 -72.68623 574 ft 77 kts 220°
2026-04-30 01:27 41.93616 -72.69127 847 ft 73 kts 222°
2026-04-30 01:27 41.93244 -72.69625 1061 ft 77 kts 219°
2026-04-30 01:28 41.92875 -72.70134 1259 ft 77 kts 219°
2026-04-30 01:28 41.92482 -72.70606 1292 ft 73 kts 201°
2026-04-30 01:28 41.92030 -72.70511 1287 ft 71 kts 135°
2026-04-30 01:28 41.91693 -72.69989 1269 ft 80 kts 132°
2026-04-30 01:29 41.91431 -72.69320 1274 ft 88 kts 93°
2026-04-30 01:29 41.91748 -72.68603 1290 ft 95 kts 49°
2026-04-30 01:29 41.92235 -72.67975 1288 ft 99 kts 49°
2026-04-30 01:29 41.92752 -72.67376 1297 ft 97 kts 46°
2026-04-30 01:30 41.93269 -72.66798 1265 ft 98 kts 45°
2026-04-30 01:30 41.93819 -72.66219 1187 ft 101 kts 41°
2026-04-30 01:30 41.94382 -72.65634 1178 ft 103 kts 43°
2026-04-30 01:30 41.94898 -72.65087 1112 ft 83 kts 39°
2026-04-30 01:31 41.95425 -72.64997 931 ft 79 kts 336°
2026-04-30 01:31 41.95722 -72.65560 735 ft 76 kts 271°
2026-04-30 01:31 41.95647 -72.66239 503 ft 71 kts 244°
2026-04-30 01:31 41.95397 -72.66765 324 ft 64 kts 227°
2026-04-30 01:32 41.95100 -72.67177 204 ft 60 kts 221°
2026-04-30 01:32 41.94838 -72.67513 171 ft 43 kts 224°
2026-04-30 01:32 41.94646 -72.67769 170 ft 35 kts 223°
2026-04-30 01:32 41.94486 -72.67977 174 ft 29 kts 224°
2026-04-30 01:33 41.94347 -72.68160 176 ft 27 kts 224°
2026-04-30 01:33 41.94215 -72.68331 175 ft 27 kts 220°
2026-04-30 01:33 41.94074 -72.68515 173 ft 33 kts 224°
2026-04-30 01:33 41.93893 -72.68752 173 ft 35 kts 223°
2026-04-30 01:34 41.93806 -72.68912 174 ft 13 kts 259°
2026-04-30 01:34 41.93831 -72.69001 176 ft 7 kts 319°
2026-04-30 01:34 41.93836 -72.69007 176 ft 0 kts 317°
2026-04-30 01:35 41.93846 -72.69021 176 ft 4 kts 314°
2026-04-30 01:35 41.93861 -72.69075 176 ft 8 kts 261°
2026-04-30 01:35 41.93821 -72.69141 177 ft 10 kts 224°
2026-04-30 01:35 41.93762 -72.69219 176 ft 13 kts 223°
2026-04-30 01:36 41.93727 -72.69318 176 ft 12 kts 301°
2026-04-30 01:36 41.93780 -72.69380 175 ft 10 kts 326°
2026-04-30 01:36 41.93788 -72.69404 175 ft 0 kts 245°